Weather History for Austin Bergstrom, TX

Change the Weather History Date:

Saturday, December 22, 2012

  Actual Average Record
Temperature  
Mean Temperature 49 °F 49 °F  
Max Temperature 69 °F 63 °F 80 °F (1988)
Min Temperature 28 °F 36 °F 16 °F (1989)
Degree Days  
Heating Degree Days 16 16  
Month to date heating degree days 184 318  
Since 1 July heating degree days 438 603  
Cooling Degree Days 0 0  
Month to date cooling degree days 44 5  
Year to date cooling degree days 3170 2746  
Growing Degree Days 2 (Base 50)    
Moisture  
Dew Point 37 °F    
Average Humidity 50    
Maximum Humidity 75    
Minimum Humidity 24    
Precipitation  
Precipitation 0.00 in 0.08 in 2.73 in (1986)
Month to date precipitation 0.46 1.58  
Year to date precipitation 34.76 34.48  
Snow  
Snow 0.00 in - - ()
Month to date snowfall 0.0  
Since 1 July snowfall 0.0  
Snow Depth 0.00 in    
Sea Level Pressure  
Sea Level Pressure 30.24 in    
Wind  
Wind Speed 7 mph (South)    
Max Wind Speed 23 mph    
Max Gust Speed 29 mph    
Visibility 10 miles    
Events      
T = Trace of Precipitation, MM = Missing Value Source: NWS Daily Summary

Daily Weather History Graph

Daily Weather History Graph

Search for Another Location

Airport:

Trip Planner

Search our weather history database for the weather conditions in past years. The results will help you decide how hot, cold, wet, or windy it might be!

Date:

Astronomy

Dec. 22, 2012 Rise Set
Actual Time 7:23 AM CST 5:35 PM CST
Civil Twilight 6:57 AM CST 6:02 PM CST
Nautical Twilight 6:27 AM CST 6:32 PM CST
Astronomical Twilight 5:57 AM CST 7:01 PM CST
Moon 1:42 PM CST (12/22) 2:23 AM CST (12/22)
Length of Visible Light 11h 04m
Length of Day
10h 12m
Waxing Gibbous, 74% of the Moon is Illuminated
Dec 22
Waxing Gibbous
Dec 28
Full
Jan 4
Last Quarter
Jan 11
New
Jan 18
First Quarter

Hourly Weather History & Observations

Time (CST) Temp. Windchill Dew Point Humidity Pressure Visibility Wind Dir Wind Speed Gust Speed Precip Events Conditions
12:53 AM 30.0 °F 25.2 °F 21.0 °F 69% 30.39 in 10.0 mi SSW 4.6 mph - N/A   Partly Cloudy
1:53 AM 32.0 °F 25.6 °F 23.0 °F 69% 30.37 in 10.0 mi SSW 6.9 mph - N/A   Partly Cloudy
2:53 AM 30.0 °F 23.2 °F 21.9 °F 72% 30.35 in 10.0 mi SSW 6.9 mph - N/A   Partly Cloudy
3:53 AM 28.9 °F - 21.0 °F 72% 30.33 in 10.0 mi Calm Calm - N/A   Clear
4:53 AM 28.9 °F - 21.9 °F 75% 30.33 in 10.0 mi Calm Calm - N/A   Partly Cloudy
5:53 AM 30.0 °F - 21.9 °F 72% 30.33 in 10.0 mi Calm Calm - N/A   Partly Cloudy
6:53 AM 28.0 °F - 21.9 °F 78% 30.35 in 10.0 mi Calm Calm - N/A   Partly Cloudy
7:53 AM 32.0 °F - 23.0 °F 69% 30.37 in 10.0 mi Calm Calm - N/A   Scattered Clouds
8:53 AM 39.0 °F - 21.0 °F 49% 30.37 in 10.0 mi Calm Calm - N/A   Partly Cloudy
9:53 AM 50.0 °F - 16.0 °F 26% 30.35 in 10.0 mi Calm Calm - N/A   Partly Cloudy
10:53 AM 59.0 °F - 36.0 °F 42% 30.33 in 10.0 mi SSE 9.2 mph - N/A   Partly Cloudy
11:53 AM 64.9 °F - 42.1 °F 43% 30.28 in 10.0 mi South 12.7 mph 21.9 mph N/A   Mostly Cloudy
12:53 PM 66.0 °F - 45.0 °F 47% 30.23 in 10.0 mi South 13.8 mph 23.0 mph N/A   Mostly Cloudy
1:53 PM 68.0 °F - 45.0 °F 43% 30.19 in 10.0 mi South 18.4 mph 25.3 mph N/A   Mostly Cloudy
2:53 PM 68.0 °F - 46.0 °F 45% 30.17 in 10.0 mi South 15.0 mph - N/A   Overcast
3:53 PM 66.9 °F - 46.9 °F 49% 30.16 in 10.0 mi SSW 13.8 mph - N/A   Overcast
4:53 PM 66.9 °F - 48.0 °F 51% 30.16 in 10.0 mi South 16.1 mph 21.9 mph N/A   Overcast
5:53 PM 64.0 °F - 48.0 °F 56% 30.15 in 10.0 mi South 8.1 mph - N/A   Mostly Cloudy
6:53 PM 63.0 °F - 48.0 °F 58% 30.12 in 10.0 mi SSE 6.9 mph - N/A   Mostly Cloudy
7:53 PM 64.0 °F - 51.1 °F 63% 30.13 in 10.0 mi South 11.5 mph - N/A   Mostly Cloudy
8:53 PM 64.0 °F - 52.0 °F 65% 30.12 in 10.0 mi South 9.2 mph - N/A   Overcast
9:53 PM 63.0 °F - 53.1 °F 70% 30.11 in 10.0 mi South 5.8 mph - N/A   Overcast
10:53 PM 62.1 °F - 53.1 °F 72% 30.10 in 10.0 mi South 6.9 mph - N/A   Overcast
11:53 PM 62.1 °F - 54.0 °F 75% 30.08 in 10.0 mi South 3.5 mph - N/A   Overcast